Simultaneous Nadir Overpasses (SNOs) Predictions

Prediction of SNOs between METOP-B and TERRA Satellite Orbit:

Table of predicted SNOs for the next 14.0 days since TLE Epoch: 4/13/2019
Index Date (METOP-B) Time (METOP-B) Lat,Lon (METOP-B) SZA (METOP-B ) Date (TERRA) Time (TERRA) Lat,Lon (TERRA) SZA (TERRA ) Distance(km) Time Diff (sec)
1 04/15/2019 19:02:22 -81.29, 121.23 105.79 04/15/2019 19:02:41 -81.29, 121.38 105.77 2.53 19
2 04/15/2019 19:53:02 81.30, -71.02 74.25 04/15/2019 19:52:07 81.30, -70.85 74.25 2.89 55
3 04/18/2019 14:36:44 -81.30,-171.74 106.68 04/18/2019 14:36:57 -81.31,-171.86 106.69 2.19 13
4 04/18/2019 15:27:24 81.31, -4.03 73.36 04/18/2019 15:26:23 81.31, -4.12 73.32 1.68 61
5 04/21/2019 10:11:08 -81.30,-105.50 107.65 04/21/2019 10:11:15 -81.30,-105.59 107.65 1.50 7
6 04/21/2019 11:01:48 81.31, 62.17 72.39 04/21/2019 11:00:41 81.30, 62.13 72.35 0.66 67
7 04/24/2019 04:55:14 81.06, 144.24 70.28 04/24/2019 04:56:27 80.77, 145.42 70.21 38.83 73
8 04/24/2019 05:45:30 -81.30, -38.88 108.54 04/24/2019 05:45:32 -81.31, -39.04 108.56 2.68 2
9 04/24/2019 06:36:10 81.31, 128.75 71.49 04/24/2019 06:34:58 81.31, 128.66 71.45 1.55 72
10 04/27/2019 00:29:15 81.29,-140.77 70.46 04/27/2019 00:30:25 81.29,-140.65 70.50 2.06 70




NCC Satellite Simultaneous Nadir Overpasses (SNOs) Prediction Service
